Date String (YYYY-MM-DD hh:mm:ss) UTC,Instrument flags,Ambient pressure (hPa),Sample flow (lpm),Bypass flow (lpm),Sample temperature (°C),Ambient temperature (°C),ASC tube jacket temperature (°C),LED temperature (°C),Box temperature (°C),Sample RH (%),Span deviation,Mass concentration (μg/m³),Mass concentration (μg/m³),Mass concentration (μg/m³)
DateTimeUTC,F1_M11,P_M11,Q1_M11,Q2_M11,T1_M11,T2_M11,T3_M11,T4_M11,T5_M11,U1_M11,ZSPAN_M11,X0_M11,X2_M11,X1_M11
2022-04-05 18:00:00,,0812.3,5.00,0.00,24.9,24.2,00.0,34.0,26.7,13.2,0000.0,0002.62,0001.10,0000.32
2022-04-05 18:01:00,,0812.2,5.00,0.00,24.9,24.3,00.0,34.0,26.7,13.4,0000.0,0002.71,0001.12,0000.32
2022-04-05 18:02:00,,0812.2,5.00,0.00,24.9,24.3,00.0,34.0,26.7,13.3,0000.0,0002.96,0001.13,0000.33
2022-04-05 18:03:00,,0812.3,5.00,0.00,24.9,24.3,00.0,34.0,26.7,13.0,0000.0,0002.82,0001.07,0000.34
2022-04-05 18:04:00,,0812.2,4.99,0.00,24.9,24.3,00.0,34.0,26.7,13.0,0000.0,0002.94,0001.05,0000.34
2022-04-05 18:05:00,,0812.3,5.00,0.00,24.9,24.3,00.0,34.0,26.7,13.0,0000.0,0003.93,0001.07,0000.34
2022-04-05 18:06:00,,0812.3,4.99,0.00,24.9,24.3,00.0,34.0,26.7,12.7,0000.0,0003.93,0001.05,0000.34
2022-04-05 18:07:00,,0812.4,5.00,0.00,24.9,24.3,00.0,33.9,26.7,12.6,0000.0,0003.98,0001.06,0000.34
2022-04-05 18:08:00,,0812.5,5.01,0.00,24.9,24.2,00.0,33.9,26.7,12.4,0000.0,0004.08,0001.08,0000.35
2022-04-05 18:09:00,,0812.4,5.00,0.00,24.9,24.2,00.0,33.9,26.7,12.5,0000.0,0005.06,0001.06,0000.34
2022-04-05 18:10:00,,0812.4,4.99,0.00,25.0,24.3,00.0,34.0,26.7,12.5,0000.0,0006.28,0001.09,0000.34
2022-04-05 18:11:00,,0812.4,5.00,0.00,25.0,24.3,00.0,34.0,26.7,12.7,0000.0,0006.93,0001.11,0000.36
2022-04-05 18:12:00,,0812.5,5.00,0.00,25.0,24.3,00.0,34.0,26.8,12.8,0000.0,0007.04,0001.14,0000.37
2022-04-05 18:13:00,,0812.5,5.01,0.00,25.0,24.3,00.0,34.0,26.8,13.0,0000.0,0007.37,0001.15,0000.37
2022-04-05 18:14:00,,0812.6,4.99,0.00,25.0,24.3,00.0,34.0,26.8,13.5,0000.0,0007.48,0001.18,0000.36
2022-04-05 18:15:00,,0812.6,5.00,0.00,25.0,24.4,00.0,34.0,26.8,13.6,0000.0,0007.21,0001.16,0000.36
2022-04-05 18:16:00,,0812.6,5.01,0.00,25.0,24.4,00.0,34.0,26.9,13.0,0000.0,0006.50,0001.19,0000.36
2022-04-05 18:17:00,,0812.7,5.00,0.00,25.1,24.4,00.0,34.0,26.9,12.6,0000.0,0006.76,0001.23,0000.37
2022-04-05 18:18:00,,0812.8,5.00,0.00,25.1,24.4,00.0,34.0,26.9,12.6,0000.0,0006.79,0001.23,0000.38
2022-04-05 18:19:00,,0812.9,5.00,0.00,25.1,24.4,00.0,34.0,27.0,12.3,0000.0,0006.76,0001.23,0000.39
2022-04-05 18:20:00,,0813.0,5.00,0.00,25.1,24.4,00.0,34.0,27.0,12.7,0000.0,0005.79,0001.19,0000.40
2022-04-05 18:21:00,,0813.2,4.99,0.00,25.2,24.4,00.0,34.0,27.0,12.7,0000.0,0005.20,0001.16,0000.40
2022-04-05 18:22:00,,0813.2,5.00,0.00,25.2,24.4,00.0,34.0,27.0,12.7,0000.0,0004.62,0001.15,0000.40
2022-04-05 18:23:00,,0813.2,5.00,0.00,25.2,24.4,00.0,34.1,27.0,12.7,0000.0,0005.53,0001.15,0000.40
2022-04-05 18:24:00,,0813.1,5.00,0.00,25.2,24.5,00.0,34.1,27.0,12.9,0000.0,0004.98,0001.09,0000.39
2022-04-05 18:25:00,,0813.1,5.01,0.00,25.2,24.5,00.0,34.1,27.0,13.1,0000.0,0004.82,0001.12,0000.40
2022-04-05 18:26:00,,0813.0,5.00,0.00,25.2,24.5,00.0,34.1,27.0,13.1,0000.0,0004.80,0001.12,0000.40
2022-04-05 18:27:00,,0813.1,5.00,0.00,25.2,24.5,00.0,34.1,27.0,12.9,0000.0,0005.26,0001.08,0000.39
2022-04-05 18:28:00,,0813.0,5.00,0.00,25.2,24.5,00.0,34.1,27.0,13.0,0000.0,0005.27,0001.04,0000.38
2022-04-05 18:29:00,,0812.9,5.00,0.00,25.2,24.5,00.0,34.1,26.9,13.3,0000.0,0005.24,0001.06,0000.37
2022-04-05 18:30:00,,0812.8,5.00,0.00,25.2,24.5,00.0,34.1,26.9,13.1,0000.0,0005.24,0001.04,0000.36
2022-04-05 18:31:00,,0812.8,4.99,0.00,25.2,24.5,00.0,34.1,27.0,12.6,0000.0,0005.08,0000.99,0000.35
2022-04-05 18:32:00,,0812.8,5.00,0.00,25.2,24.5,00.0,34.1,26.9,12.9,0000.0,0004.30,0000.95,0000.33
2022-04-05 18:33:00,,0812.8,5.00,0.00,25.2,24.5,00.0,34.1,26.9,13.3,0000.0,0003.91,0000.88,0000.33
2022-04-05 18:34:00,,0813.0,4.99,0.00,25.2,24.4,00.0,34.1,26.9,13.5,0000.0,0002.68,0000.82,0000.32
2022-04-05 18:35:00,,0812.8,5.01,0.00,25.2,24.4,00.0,34.1,26.9,13.3,0000.0,0002.69,0000.81,0000.31
2022-04-05 18:36:00,,0812.8,5.01,0.00,25.2,24.4,00.0,34.2,26.9,13.4,0000.0,0002.52,0000.75,0000.31
2022-04-05 18:37:00,,0812.8,4.99,0.00,25.2,24.4,00.0,34.1,26.9,13.4,0000.0,0002.57,0000.74,0000.31
2022-04-05 18:38:00,,0812.8,5.00,0.00,25.2,24.4,00.0,34.1,26.9,13.6,0000.0,0001.97,0000.75,0000.31
2022-04-05 18:39:00,,0812.8,5.00,0.00,25.2,24.5,00.0,34.2,26.9,13.7,0000.0,0001.89,0000.76,0000.31
2022-04-05 18:40:00,,0812.8,5.00,0.00,25.2,24.5,00.0,34.2,26.9,13.7,0000.0,0001.86,0000.73,0000.31
2022-04-05 18:41:00,,0812.8,5.02,0.00,25.2,24.5,00.0,34.2,27.0,13.7,0000.0,0001.82,0000.71,0000.31
2022-04-05 18:42:00,,0812.8,5.00,0.00,25.2,24.5,00.0,34.2,27.0,13.7,0000.0,0002.00,0000.71,0000.31
2022-04-05 18:43:00,,0812.9,5.00,0.00,25.2,24.5,00.0,34.2,27.0,13.5,0000.0,0002.06,0000.73,0000.31
2022-04-05 18:44:00,,0813.0,5.00,0.00,25.3,24.5,00.0,34.2,27.1,13.1,0000.0,0002.19,0000.75,0000.31
2022-04-05 18:45:00,,0813.1,5.00,0.00,25.3,24.5,00.0,34.2,27.0,13.5,0000.0,0002.20,0000.76,0000.30
2022-04-05 18:46:00,,0813.2,5.00,0.00,25.3,24.4,00.0,34.2,27.0,13.7,0000.0,0002.25,0000.77,0000.30
2022-04-05 18:47:00,,0813.2,5.00,0.00,25.3,24.4,00.0,34.2,27.0,13.5,0000.0,0002.33,0000.78,0000.29
2022-04-05 18:48:00,,0813.2,5.00,0.00,25.3,24.4,00.0,34.2,27.0,13.5,0000.0,0002.29,0000.76,0000.29
2022-04-05 18:49:00,,0813.2,5.00,0.00,25.3,24.4,00.0,34.2,27.0,13.7,0000.0,0002.19,0000.76,0000.28
2022-04-05 18:50:00,,0813.2,5.00,0.00,25.3,24.4,00.0,34.2,27.0,14.1,0000.0,0002.08,0000.74,0000.28
2022-04-05 18:51:00,,0813.0,5.00,0.00,25.4,24.4,00.0,34.3,27.1,14.0,0000.0,0002.72,0000.73,0000.28
2022-04-05 18:52:00,,0813.0,5.00,0.00,25.4,24.5,00.0,34.3,27.2,13.4,0000.0,0003.79,0000.76,0000.28
2022-04-05 18:53:00,,0812.9,5.01,0.00,25.4,24.6,00.0,34.3,27.2,13.4,0000.0,0004.05,0000.76,0000.27
2022-04-05 18:54:00,,0813.0,5.01,0.00,25.4,24.6,00.0,34.3,27.2,13.4,0000.0,0004.04,0000.75,0000.28
2022-04-05 18:55:00,,0812.8,5.00,0.00,25.5,24.6,00.0,34.3,27.3,13.2,0000.0,0003.86,0000.71,0000.28
2022-04-05 18:56:00,,0812.9,4.99,0.00,25.5,24.7,00.0,34.3,27.3,12.9,0000.0,0003.89,0000.73,0000.29
2022-04-05 18:57:00,,0812.8,5.00,0.00,25.5,24.7,00.0,34.4,27.3,12.8,0000.0,0003.79,0000.74,0000.29
2022-04-05 18:58:00,,0812.7,5.00,0.00,25.5,24.7,00.0,34.4,27.3,12.6,0000.0,0003.79,0000.76,0000.31
2022-04-05 18:59:00,,0812.6,4.99,0.00,25.5,24.7,00.0,34.4,27.4,12.8,0000.0,0004.22,0000.80,0000.33
